TimeCDT,TemperatureF,Dew PointF,Humidity,Sea Level PressureIn,VisibilityMPH,Wind Direction,Wind SpeedMPH,Gust SpeedMPH,PrecipitationIn,Events,Conditions,WindDirDegrees,DateUTC
12:15 AM,61.5,36.3,39,29.88,10.0,South,5.8,-,N/A,,Clear,190,2013-10-01 05:15:00
12:35 AM,53.6,34.5,48,29.88,10.0,SSW,3.5,-,N/A,,Clear,210,2013-10-01 05:35:00
12:55 AM,52.3,36.0,54,29.87,10.0,SSW,4.6,-,N/A,,Clear,200,2013-10-01 05:55:00
1:15 AM,55.6,37.6,51,29.86,10.0,SSW,3.5,-,N/A,,Clear,200,2013-10-01 06:15:00
1:35 AM,55.9,36.9,49,29.86,10.0,Calm,Calm,-,N/A,,Clear,0,2013-10-01 06:35:00
1:55 AM,51.4,37.2,58,29.86,10.0,Calm,Calm,-,N/A,,Clear,0,2013-10-01 06:55:00
2:15 AM,50.5,37.9,62,29.86,10.0,Calm,Calm,-,N/A,,Clear,0,2013-10-01 07:15:00
2:35 AM,51.3,39.4,64,29.86,10.0,Calm,Calm,-,N/A,,Clear,0,2013-10-01 07:35:00
2:55 AM,51.3,36.0,56,29.85,10.0,Calm,Calm,-,N/A,,Clear,0,2013-10-01 07:55:00
3:15 AM,49.6,34.2,55,29.85,10.0,Calm,Calm,-,N/A,,Clear,0,2013-10-01 08:15:00
3:35 AM,48.6,36.3,63,29.85,10.0,Calm,Calm,-,N/A,,Clear,0,2013-10-01 08:35:00
3:55 AM,49.1,37.4,64,29.84,10.0,Calm,Calm,-,N/A,,Clear,0,2013-10-01 08:55:00
4:15 AM,47.8,33.8,58,29.84,10.0,Calm,Calm,-,N/A,,Clear,0,2013-10-01 09:15:00
4:35 AM,47.3,38.7,72,29.84,10.0,NE,3.5,-,N/A,,Clear,50,2013-10-01 09:35:00
4:55 AM,46.9,37.2,69,29.84,10.0,East,3.5,-,N/A,,Clear,90,2013-10-01 09:55:00
5:15 AM,46.2,37.6,72,29.85,10.0,Calm,Calm,-,N/A,,Clear,0,2013-10-01 10:15:00
5:35 AM,48.0,36.0,63,29.85,10.0,Calm,Calm,-,N/A,,Clear,0,2013-10-01 10:35:00
5:55 AM,46.6,35.4,65,29.85,10.0,Calm,Calm,-,N/A,,Clear,0,2013-10-01 10:55:00
6:15 AM,45.1,36.1,71,29.85,10.0,Calm,Calm,-,N/A,,Clear,0,2013-10-01 11:15:00
6:35 AM,45.1,36.7,72,29.86,10.0,Calm,Calm,-,N/A,,Clear,0,2013-10-01 11:35:00
6:55 AM,44.8,34.9,68,29.87,10.0,Calm,Calm,-,N/A,,Clear,0,2013-10-01 11:55:00
7:15 AM,44.6,37.0,75,29.88,7.0,Calm,Calm,-,N/A,,Clear,0,2013-10-01 12:15:00
7:35 AM,45.7,36.3,70,29.88,7.0,Calm,Calm,-,N/A,,Clear,0,2013-10-01 12:35:00
7:55 AM,45.9,36.3,69,29.89,7.0,Calm,Calm,-,N/A,,Clear,0,2013-10-01 12:55:00
8:15 AM,46.2,35.2,66,29.89,10.0,Calm,Calm,-,N/A,,Clear,0,2013-10-01 13:15:00
8:35 AM,49.1,36.0,61,29.88,7.0,SSW,3.5,-,N/A,,Clear,200,2013-10-01 13:35:00
8:55 AM,52.7,34.7,50,29.89,10.0,SSW,3.5,-,N/A,,Clear,200,2013-10-01 13:55:00
9:15 AM,55.2,35.2,47,29.90,7.0,SW,3.5,-,N/A,,Clear,230,2013-10-01 14:15:00
9:35 AM,57.4,35.4,44,29.90,7.0,Calm,Calm,-,N/A,,Clear,0,2013-10-01 14:35:00
9:55 AM,60.6,36.9,41,29.91,10.0,West,4.6,-,N/A,,Clear,260,2013-10-01 14:55:00
10:15 AM,63.0,37.4,39,29.91,10.0,WNW,4.6,-,N/A,,Clear,300,2013-10-01 15:15:00
10:35 AM,66.2,37.6,35,29.91,10.0,North,3.5,-,N/A,,Clear,360,2013-10-01 15:35:00
10:55 AM,69.6,36.5,30,29.91,10.0,North,4.6,-,N/A,,Clear,360,2013-10-01 15:55:00
11:15 AM,73.0,36.9,27,29.92,10.0,North,3.5,-,N/A,,Clear,350,2013-10-01 16:15:00
11:35 AM,73.9,36.1,25,29.92,10.0,North,3.5,-,N/A,,Clear,350,2013-10-01 16:35:00
11:55 AM,75.9,36.3,24,29.91,10.0,ENE,3.5,-,N/A,,Clear,60,2013-10-01 16:55:00
12:15 PM,77.9,34.9,21,29.91,10.0,East,3.5,-,N/A,,Clear,90,2013-10-01 17:15:00
12:35 PM,79.2,34.7,20,29.91,10.0,ENE,6.9,-,N/A,,Clear,60,2013-10-01 17:35:00
12:55 PM,81.3,34.9,19,29.91,10.0,East,5.8,-,N/A,,Clear,80,2013-10-01 17:55:00
1:15 PM,83.1,34.2,17,29.91,10.0,ENE,5.8,-,N/A,,Clear,60,2013-10-01 18:15:00
1:35 PM,84.4,34.5,17,29.91,10.0,SE,6.9,-,N/A,,Clear,130,2013-10-01 18:35:00
1:55 PM,84.0,35.8,18,29.91,10.0,ESE,6.9,-,N/A,,Clear,120,2013-10-01 18:55:00
2:15 PM,83.8,37.6,19,29.90,10.0,South,8.1,-,N/A,,Clear,170,2013-10-01 19:15:00
2:35 PM,84.9,38.3,19,29.89,10.0,SE,5.8,-,N/A,,Clear,140,2013-10-01 19:35:00
2:55 PM,85.3,36.5,18,29.89,10.0,SE,8.1,-,N/A,,Clear,140,2013-10-01 19:55:00
3:15 PM,85.8,35.4,17,29.88,10.0,Calm,Calm,-,N/A,,Clear,0,2013-10-01 20:15:00
3:35 PM,87.3,32.9,14,29.88,10.0,Calm,Calm,-,N/A,,Clear,0,2013-10-01 20:35:00
3:55 PM,87.4,32.5,14,29.87,10.0,Calm,Calm,-,N/A,,Clear,0,2013-10-01 20:55:00
4:15 PM,87.8,33.8,15,29.87,10.0,Calm,Calm,-,N/A,,Clear,0,2013-10-01 21:15:00
4:35 PM,89.8,34.5,14,29.87,10.0,ENE,5.8,-,N/A,,Clear,70,2013-10-01 21:35:00
4:55 PM,89.4,33.8,14,29.87,10.0,West,4.6,-,N/A,,Clear,260,2013-10-01 21:55:00
5:15 PM,90.3,32.2,13,29.87,10.0,SSW,6.9,-,N/A,,Clear,210,2013-10-01 22:15:00
5:35 PM,90.3,31.1,12,29.86,10.0,North,4.6,-,N/A,,Clear,10,2013-10-01 22:35:00
5:55 PM,89.6,33.8,14,29.87,10.0,West,6.9,-,N/A,,Clear,280,2013-10-01 22:55:00
6:15 PM,89.4,32.5,13,29.87,10.0,NW,3.5,-,N/A,,Clear,320,2013-10-01 23:15:00
6:35 PM,88.5,32.0,13,29.87,10.0,WNW,3.5,-,N/A,,Clear,300,2013-10-01 23:35:00
6:55 PM,87.1,33.6,15,29.87,10.0,North,3.5,-,N/A,,Clear,350,2013-10-01 23:55:00
7:15 PM,83.7,36.0,18,29.88,10.0,Calm,Calm,-,N/A,,Clear,0,2013-10-02 00:15:00
7:35 PM,80.4,36.5,21,29.88,10.0,Calm,Calm,-,N/A,,Clear,0,2013-10-02 00:35:00
7:55 PM,75.2,39.2,27,29.89,10.0,Calm,Calm,-,N/A,,Clear,0,2013-10-02 00:55:00
8:15 PM,75.2,37.6,26,29.89,10.0,SW,5.8,-,N/A,,Clear,220,2013-10-02 01:15:00
8:35 PM,75.7,36.3,24,29.89,10.0,Calm,Calm,-,N/A,,Clear,0,2013-10-02 01:35:00
8:55 PM,72.3,38.3,29,29.90,10.0,NNW,3.5,-,N/A,,Clear,340,2013-10-02 01:55:00
9:15 PM,68.7,36.5,31,29.90,10.0,NW,4.6,-,N/A,,Clear,320,2013-10-02 02:15:00
9:35 PM,61.3,39.6,45,29.91,10.0,SE,8.1,-,N/A,,Clear,130,2013-10-02 02:35:00
9:55 PM,66.9,32.7,28,29.92,10.0,SSE,8.1,-,N/A,,Clear,150,2013-10-02 02:55:00
10:15 PM,70.3,36.1,29,29.92,10.0,SSE,10.4,-,N/A,,Clear,150,2013-10-02 03:15:00
10:35 PM,69.3,37.9,32,29.93,10.0,SSE,11.5,17.3,N/A,,Clear,150,2013-10-02 03:35:00
10:55 PM,67.6,39.6,36,29.94,10.0,SSE,15.0,-,N/A,,Clear,150,2013-10-02 03:55:00
11:15 PM,68.2,40.1,36,29.95,10.0,SSE,15.0,-,N/A,,Clear,150,2013-10-02 04:15:00
11:35 PM,68.0,41.5,38,29.95,10.0,SSE,16.1,-,N/A,,Clear,150,2013-10-02 04:35:00
11:55 PM,68.5,45.3,43,29.95,10.0,SSE,17.3,23.0,N/A,,Clear,150,2013-10-02 04:55:00